#timestamp,LO_Frequency,Hit,StdDev 
1591596015.4,286046999.4,N
1591596035.2,286046998.5,N
1591596055.1,286046998.7,N
1591596056.0,286046998.7,N
1591596075.8,286046999.6,N
1591596095.7,286046997.2,N
1591596115.5,286046998.4,N
1591596135.3,286046999.9,N
1591596155.2,286047002.7,N
1591596175.0,286047000.5,N
1591596175.9,286047000.5,N
1591596195.8,286047000.9,N
1591596215.6,286046997.7,N
1591596235.4,286046996.6,N
1591596255.3,286047001.0,N
1591596275.1,286046998.6,N
1591596295.9,286046998.3,N
1591596315.7,286046998.8,N
1591596335.5,286046998.1,N
1591596355.4,286046998.2,N
1591596375.2,286047000.7,N
1591596395.1,286046998.2,N
1591596396.0,286046998.2,N
1591596415.8,286047000.7,N
1591596435.6,286047001.1,N
1591596455.5,286047002.4,N
1591596475.3,286046999.8,N
1591596495.1,286047004.0,N
1591596515.9,286047002.3,N
1591596535.7,286047000.0,N
1591596555.6,286047000.5,N
1591596575.4,286046999.9,N
1591596595.2,286046999.9,N
1591596615.1,286047001.0,N
1591596616.0,286047001.0,N
1591596635.8,286047002.0,N
1591596655.7,286047002.7,N
1591596675.5,286046998.2,N
1591596695.3,286047001.0,N
1591596715.2,286047000.4,N
1591596735.0,286046999.9,N
1591596735.9,286046999.9,N
1591596755.7,286047001.1,N
1591596775.6,286047000.7,N
1591596795.4,286047000.4,N
1591596815.3,286047002.2,N
1591596835.1,286047002.4,N
1591596855.8,286047001.0,N
1591596875.7,286047002.8,N
1591596895.5,286047001.2,N
1591596915.4,286047000.6,N
1591596935.2,286046999.8,N
1591596955.0,286047000.3,N
1591596955.9,286047000.3,N
1591596975.8,286047000.8,N
1591596995.6,286047000.4,N
1591597015.5,286047000.7,N
1591597035.3,286047001.1,N
1591597055.1,286047000.5,N
1591597075.9,286047002.4,N
1591597095.7,286047000.6,N
1591597115.6,286047004.0,Y
1591597135.4,286047001.8,P
1591597155.2,286047000.1,N
1591597175.1,286047001.1,N
1591597176.0,286047001.1,N
1591597195.8,286046999.0,N
1591597215.6,286046998.4,N
1591597235.5,286046999.0,N
1591597255.3,286046998.4,N
1591597275.2,286046999.8,N
1591597295.9,286046999.9,N
1591597315.7,286047000.9,N
1591597335.6,286047002.1,N
1591597355.4,286047000.5,N
1591597375.3,286047002.0,N
1591597395.1,286047003.9,Y
1591597396.0,286047003.9,P
1591597415.8,286047005.5,P
1591597435.7,286047004.1,N
1591597455.5,286047003.0,N
1591597475.4,286047005.9,Y
1591597495.2,286047000.3,P
1591597515.0,286046999.9,N
1591597515.9,286046999.9,N
1591597535.8,286046998.2,N
1591597555.6,286046998.9,N
1591597575.4,286047001.0,N
1591597595.3,286047001.1,N
1591597615.1,286046998.9,N
1591597635.9,286046999.3,N
1591597655.7,286046995.0,Y
1591597675.5,286046994.2,P
1591597695.4,286046996.1,N
1591597715.2,286046999.4,N
1591597735.1,286046999.5,N
1591597736.0,286046999.5,N
1591597755.8,286046999.5,N
1591597775.6,286046997.6,N
1591597795.5,286046995.1,N
1591597815.3,286046995.6,N
1591597835.1,286046994.4,N
1591597855.9,286046994.0,N
1591597875.7,286046992.0,Y
1591597895.6,286046996.2,P
1591597915.4,286046995.9,P
1591597935.2,286046992.1,P
1591597955.1,286046992.4,Y
1591597956.0,286046992.4,P
1591597975.8,286046996.7,N
1591597995.7,286046998.9,N
1591598015.5,286046997.1,N
1591598035.3,286046997.8,N
1591598055.2,286046998.0,N
1591598075.0,286046997.0,N
1591598075.9,286046997.0,N
1591598095.8,286046996.5,N
1591598115.6,286046998.1,N
1591598135.4,286046999.8,N
1591598155.3,286047001.6,N
1591598175.1,286047001.5,N
1591598195.8,286047004.0,N
1591598215.7,286047002.5,N
1591598235.5,286047001.6,N
1591598255.4,286047002.2,N
1591598275.2,286047002.8,N
1591598295.0,286047002.7,N
1591598295.9,286047002.7,N
1591598315.8,286046999.5,N
1591598335.6,286046996.6,N
1591598355.5,286046998.1,N
1591598375.3,286046995.7,N
1591598395.1,286046997.1,N
1591598415.9,286046996.6,N
1591598435.7,286046998.4,N
1591598455.5,286047000.7,N
1591598475.4,286047000.5,N
1591598495.2,286046996.9,N
1591598515.1,286046999.6,N
1591598516.0,286046999.6,N
1591598535.8,286046997.5,N
1591598555.6,286046996.1,N
1591598575.5,286046997.7,N
1591598595.3,286046995.4,N
1591598615.2,286046995.2,N
1591598635.9,286046995.9,N
1591598655.7,286046996.8,N
1591598675.6,286047002.8,N
1591598695.4,286047000.7,N
1591598715.2,286047001.1,N
1591598735.1,286047001.1,N
1591598736.0,286047001.1,N
1591598755.8,286046998.6,N
1591598775.7,286047000.8,N
1591598795.5,286047002.8,N
1591598815.3,286046999.9,N
1591598835.2,286046999.8,N
1591598855.0,286047000.2,N
1591598855.9,286047000.2,N
1591598875.8,286047000.6,N
1591598895.6,286047000.2,N
1591598915.4,286047000.4,N
1591598935.3,286047001.5,N
1591598955.1,286046999.8,N
1591598975.9,286046998.6,N
1591598995.7,286046999.8,N
1591599015.5,286046998.2,N
1591599035.4,286047001.0,N
1591599055.2,286047001.2,N
1591599075.0,286047000.5,N
1591599076.0,286047000.5,N
1591599095.8,286046999.7,N
1591599115.6,286047001.0,N
1591599135.5,286047000.5,N
1591599155.3,286046998.3,N
1591599175.1,286046999.8,N
1591599195.9,286047000.2,N
1591599215.7,286047001.9,N
1591599235.6,286047002.1,N
1591599255.4,286047002.4,N
1591599275.2,286047001.5,N
1591599295.1,286047000.8,N
1591599296.0,286047000.8,N
1591599315.8,286047002.8,N
1591599335.7,286046999.7,N
1591599355.5,286047002.6,N
1591599375.3,286047002.5,N
1591599395.2,286047002.1,N
1591599415.9,286047000.0,N
1591599435.7,286047000.5,N
1591599455.6,286047002.0,N
1591599475.4,286047004.3,Y
1591599495.3,286047002.7,P
1591599515.1,286047002.2,N
1591599516.0,286047002.2,N
1591599535.8,286047000.1,N
1591599555.7,286047001.9,N
1591599575.5,286047002.5,N
1591599595.4,286047000.4,N
